Location: Antin
(43.3330°N, 0.2804°E)
Time: 22:49:02
(UTC+00:00)

Cosmos 371 Rocket - Pass Details

Date: 16 October 2021
Orbit: 684 x 699 km, 74.0° (Epoch: 04 December)

Event Time Altitude Azimuth Distance (km) Brightness Sun altitude
Rises 19:22:25 0° 196° (SSW) 3,048 6.7 -24.0°
Reaches altitude 10° 19:24:42 10° 196° (SSW) 2,138 5.9 -24.5°
Enters shadow 19:28:50 65° 184° (S) 762 3.3 -25.2°
